Home   Weather   Shantou   Past weeks
Flag for China

Past Weather in Shantou, Guangdong, China — Yesterday and Last 2 Weeks

Now
61 °F

Overcast.


Feels Like: 61 °F
Forecast: 76 / 60 °F
Wind: 6 mph from East

Location: Shantou Airport

Current Time: Mar 24, 2019 at 7:36:02 pm

Latest Report: Mar 24, 2019 at 6:00 pm


Visibility: N/A

Pressure: 30.07 "Hg

Humidity: 94%

Dew Point: 59 °F

Location of ShantouLocation

Past Weather in Shantou — Graph

°F

Shantou Temperature Yesterday

Maximum temperature yesterday: 64 °F (at 1:00 pm)
Minimum temperature yesterday: 59 °F (at 8:00 pm)
Average temperature yesterday: 62 °F

High & Low Weather Summary for the Past Weeks

 TemperatureHumidityPressure
High88 °F (Mar 21, 4:00 pm)100% (Mar 9, 9:00 pm)30.24 "Hg (Mar 9, 9:00 pm)
Low55 °F (Mar 12, 3:00 am)29% (Mar 16, 12:00 pm)29.77 "Hg (Mar 21, 4:00 pm)
Average66 °F85%30.04 "Hg
* Reported Mar 9 6:00 pm — Mar 24 6:00 pm, Shantou. Weather by CustomWeather, © 2019

Note: Actual official high and low records may vary slightly from our data, if they occured in-between our weather recording intervals... More about our weather records

Advertising

Shantou Weather History for the Previous 24 Hours

Scroll right to see more
 ConditionsComfort  
Time TempWeatherWind HumidityBarometerVisibility
6:00 pm
Sun, Mar 24
61 °FOvercast.6 mph94%30.07 "HgN/A
5:00 pm61 °FMore clouds than sun.3 mph94%30.07 "HgN/A
4:00 pm61 °FMore clouds than sun.6 mph94%30.04 "HgN/A
3:00 pm59 °FMore clouds than sun.6 mph100%30.07 "HgN/A
2:00 pm57 °FLight rain. Mostly cloudy.3 mph100%30.09 "HgN/A
1:00 pm57 °FMore clouds than sun.6 mph100%30.12 "HgN/A
12:00 pm57 °FLight rain. More clouds than sun.6 mph100%30.15 "HgN/A
11:00 am57 °FLight rain. Overcast.3 mph100%30.15 "HgN/A
10:00 am57 °FLight rain. Overcast.6 mph100%30.18 "HgN/A
8:00 am57 °FOvercast.8 mph100%30.15 "HgN/A
7:00 am57 °FLight rain. Overcast.6 mph100%30.15 "HgN/A
6:00 am57 °FOvercast.6 mph100%30.12 "HgN/A
5:00 am55 °FLow clouds.6 mph100%30.12 "HgN/A
4:00 am55 °FLight rain. Low clouds.6 mph100%30.12 "Hg5 mi
3:00 am57 °FLight rain. Mostly cloudy.8 mph100%30.12 "Hg4 mi
2:00 am57 °FLight rain. Mostly cloudy.3 mph100%30.12 "Hg3 mi
1:00 am57 °FLight rain. Mostly cloudy.6 mph100%30.15 "Hg4 mi
12:00 am59 °FSprinkles. Mostly cloudy.6 mph94%30.15 "Hg4 mi
11:00 pm
Sat, Mar 23
61 °FOvercast.3 mph88%30.15 "HgN/A
10:00 pm61 °FOvercast.6 mph88%30.15 "HgN/A
9:00 pm61 °FOvercast.6 mph88%30.15 "HgN/A
8:00 pm59 °FLight rain. Mostly cloudy.6 mph100%30.12 "Hg5 mi
7:00 pm61 °FMostly cloudy.10 mph88%30.12 "HgN/A
Weather by CustomWeather, © 2019

See weather overview